• In Netherlands
  • List of Countries
  • For 7 days
  • Water Temperature
  • Satellite Maps
  • Weather Map
  • Weather Widgets
  • user-avatar
    Login

    Hourly Weather Kranevo

    Today, 26 July, Wednesday

    Time Temperature Precipitation Wind Pressure Humidity
    00:00 +21°C° 0.2 mm 2 mps 748 mmHg 84%
    01:00 +21°C° 0.2 mm 2 mps 748 mmHg 84%
    02:00 +21°C° 0.2 mm 3 mps 748 mmHg 84%
    03:00 +20°C° 0 mm 3 mps 748 mmHg 85%
    04:00 +20°C° 0 mm 4 mps 748 mmHg 85%
    05:00 +20°C° 0 mm 4 mps 748 mmHg 86%
    06:00 +21°C° 0 mm 4 mps 748 mmHg 80%
    07:00 +22°C° 0 mm 4 mps 748 mmHg 74%
    08:00 +25°C° 0 mm 4 mps 748 mmHg 66%
    09:00 +27°C° 0 mm 3 mps 748 mmHg 59%
    10:00 +29°C° 0 mm 3 mps 748 mmHg 52%
    11:00 +30°C° 0 mm 2 mps 748 mmHg 45%
    12:00 +31°C° 0 mm 3 mps 748 mmHg 44%
    13:00 +33°C° 0 mm 3 mps 748 mmHg 42%
    14:00 +34°C° 0 mm 3 mps 748 mmHg 41%
    15:00 +33°C° 0 mm 4 mps 747 mmHg 44%
    16:00 +32°C° 0 mm 4 mps 747 mmHg 47%
    17:00 +32°C° 0 mm 4 mps 747 mmHg 51%
    18:00 +29°C° 0.1 mm 3 mps 747 mmHg 59%
    19:00 +27°C° 0.1 mm 3 mps 747 mmHg 68%
    20:00 +25°C° 0.1 mm 2 mps 747 mmHg 76%
    21:00 +24°C° 0.1 mm 2 mps 747 mmHg 80%
    22:00 +24°C° 0.1 mm 2 mps 747 mmHg 83%
    23:00 +23°C° 0.1 mm 1 mps 747 mmHg 86%

    Tomorrow, 27 July, Thursday

    Time Temperature Precipitation Wind Pressure Humidity
    00:00 +23°C° 0 mm 1 mps 747 mmHg 87%
    01:00 +23°C° 0 mm 1 mps 747 mmHg 88%
    02:00 +23°C° 0 mm 1 mps 747 mmHg 89%
    03:00 +22°C° 0 mm 1 mps 747 mmHg 89%
    04:00 +22°C° 0 mm 1 mps 747 mmHg 89%
    05:00 +22°C° 0 mm 1 mps 747 mmHg 89%
    06:00 +23°C° 0 mm 1 mps 747 mmHg 84%
    07:00 +25°C° 0 mm 2 mps 747 mmHg 78%
    08:00 +26°C° 0 mm 2 mps 748 mmHg 73%
    09:00 +27°C° 0 mm 2 mps 748 mmHg 67%
    10:00 +29°C° 0 mm 2 mps 748 mmHg 61%
    11:00 +30°C° 0 mm 2 mps 748 mmHg 56%
    12:00 +31°C° 0.2 mm 2 mps 748 mmHg 55%
    13:00 +31°C° 0.2 mm 2 mps 748 mmHg 54%
    14:00 +31°C° 0.2 mm 2 mps 748 mmHg 53%
    15:00 +30°C° 0.8 mm 3 mps 747 mmHg 56%
    16:00 +29°C° 0.8 mm 3 mps 747 mmHg 60%
    17:00 +29°C° 0.8 mm 4 mps 747 mmHg 64%
    18:00 +27°C° 0 mm 4 mps 747 mmHg 68%
    19:00 +26°C° 0 mm 5 mps 747 mmHg 72%
    20:00 +25°C° 0 mm 5 mps 748 mmHg 77%
    21:00 +23°C° 0.4 mm 6 mps 748 mmHg 79%
    22:00 +22°C° 0.4 mm 6 mps 748 mmHg 81%
    23:00 +21°C° 0.4 mm 7 mps 748 mmHg 84%

    Day after tomorrow, 28 July, Friday

    Time Temperature Precipitation Wind Pressure Humidity
    00:00 +21°C° 0.7 mm 6 mps 748 mmHg 84%
    01:00 +21°C° 0.7 mm 6 mps 749 mmHg 84%
    02:00 +20°C° 0.7 mm 6 mps 749 mmHg 85%
    03:00 +20°C° 0.2 mm 6 mps 749 mmHg 83%
    04:00 +20°C° 0.2 mm 7 mps 749 mmHg 82%
    05:00 +18°C° 0.2 mm 8 mps 749 mmHg 81%
    06:00 +20°C° 0.7 mm 8 mps 749 mmHg 77%
    07:00 +21°C° 0.7 mm 8 mps 750 mmHg 73%
    08:00 +22°C° 0.7 mm 8 mps 751 mmHg 69%
    09:00 +24°C° 0.4 mm 7 mps 751 mmHg 63%
    10:00 +27°C° 0.4 mm 7 mps 751 mmHg 57%
    11:00 +28°C° 0.4 mm 6 mps 751 mmHg 51%
    12:00 +29°C° 0 mm 6 mps 751 mmHg 47%
    13:00 +30°C° 0 mm 6 mps 751 mmHg 44%
    14:00 +32°C° 0 mm 6 mps 751 mmHg 40%
    15:00 +32°C° 0 mm 5 mps 751 mmHg 42%
    16:00 +30°C° 0 mm 5 mps 751 mmHg 43%
    17:00 +30°C° 0 mm 5 mps 752 mmHg 44%
    18:00 +28°C° 0 mm 4 mps 752 mmHg 48%
    19:00 +27°C° 0 mm 4 mps 752 mmHg 51%
    20:00 +26°C° 0 mm 3 mps 753 mmHg 55%
    21:00 +25°C° 0 mm 3 mps 753 mmHg 56%
    22:00 +25°C° 0 mm 4 mps 754 mmHg 57%
    23:00 +23°C° 0 mm 4 mps 754 mmHg 58%

    29 July, Saturday

    Time Temperature Precipitation Wind Pressure Humidity
    00:00 +22°C° 0 mm 4 mps 754 mmHg 59%
    01:00 +22°C° 0 mm 4 mps 755 mmHg 59%
    02:00 +21°C° 0 mm 4 mps 755 mmHg 60%
    03:00 +21°C° 0 mm 4 mps 755 mmHg 61%
    04:00 +20°C° 0 mm 4 mps 756 mmHg 63%
    05:00 +20°C° 0 mm 4 mps 756 mmHg 65%
    06:00 +21°C° 0 mm 4 mps 757 mmHg 62%
    07:00 +23°C° 0 mm 4 mps 757 mmHg 59%
    08:00 +26°C° 0 mm 4 mps 758 mmHg 56%
    09:00 +27°C° 0 mm 4 mps 758 mmHg 51%
    10:00 +29°C° 0 mm 4 mps 758 mmHg 46%
    11:00 +30°C° 0 mm 3 mps 759 mmHg 41%
    12:00 +31°C° 0 mm 3 mps 758 mmHg 39%
    13:00 +33°C° 0 mm 3 mps 758 mmHg 37%
    14:00 +34°C° 0 mm 4 mps 758 mmHg 35%
    15:00 +33°C° 0 mm 3 mps 758 mmHg 37%
    16:00 +33°C° 0 mm 3 mps 758 mmHg 38%
    17:00 +33°C° 0 mm 3 mps 758 mmHg 40%
    18:00 +29°C° 0 mm 3 mps 758 mmHg 48%
    19:00 +27°C° 0 mm 3 mps 759 mmHg 56%
    20:00 +25°C° 0 mm 3 mps 759 mmHg 63%
    21:00 +25°C° 0 mm 3 mps 759 mmHg 67%
    22:00 +24°C° 0 mm 3 mps 759 mmHg 71%
    23:00 +24°C° 0 mm 3 mps 760 mmHg 75%

    30 July, Sunday

    Time Temperature Precipitation Wind Pressure Humidity
    00:00 +23°C° 0 mm 2 mps 760 mmHg 74%
    01:00 +23°C° 0 mm 2 mps 760 mmHg 74%
    02:00 +23°C° 0 mm 2 mps 760 mmHg 73%
    03:00 +23°C° 0 mm 2 mps 760 mmHg 73%
    04:00 +23°C° 0 mm 1 mps 760 mmHg 72%
    05:00 +22°C° 0 mm 1 mps 760 mmHg 71%
    06:00 +24°C° 0 mm 1 mps 760 mmHg 64%
    07:00 +26°C° 0 mm 1 mps 760 mmHg 58%
    08:00 +28°C° 0 mm 1 mps 760 mmHg 51%
    09:00 +30°C° 0 mm 1 mps 760 mmHg 47%
    10:00 +31°C° 0 mm 2 mps 760 mmHg 43%
    11:00 +32°C° 0 mm 2 mps 760 mmHg 38%
    12:00 +34°C° 0 mm 3 mps 760 mmHg 37%
    13:00 +34°C° 0 mm 3 mps 760 mmHg 36%
    14:00 +35°C° 0 mm 4 mps 760 mmHg 35%
    15:00 +34°C° 0 mm 4 mps 759 mmHg 38%
    16:00 +33°C° 0 mm 4 mps 759 mmHg 40%
    17:00 +32°C° 0 mm 5 mps 759 mmHg 43%
    18:00 +29°C° 0 mm 4 mps 759 mmHg 52%
    19:00 +27°C° 0 mm 4 mps 759 mmHg 61%
    20:00 +25°C° 0 mm 3 mps 759 mmHg 71%
    21:00 +24°C° 0 mm 3 mps 759 mmHg 75%
    22:00 +22°C° 0 mm 3 mps 759 mmHg 79%
    23:00 +21°C° 0 mm 2 mps 759 mmHg 84%

    31 July, Monday

    Time Temperature Precipitation Wind Pressure Humidity
    00:00 +21°C° 0 mm 2 mps 759 mmHg 85%
    01:00 +21°C° 0 mm 2 mps 759 mmHg 86%
    02:00 +21°C° 0 mm 2 mps 759 mmHg 86%
    03:00 +20°C° 0 mm 2 mps 759 mmHg 87%
    04:00 +20°C° 0 mm 3 mps 759 mmHg 88%
    05:00 +20°C° 0 mm 3 mps 759 mmHg 89%
    06:00 +22°C° 0 mm 3 mps 759 mmHg 80%
    07:00 +25°C° 0 mm 4 mps 760 mmHg 70%
    08:00 +27°C° 0 mm 4 mps 760 mmHg 61%
    09:00 +29°C° 0 mm 5 mps 760 mmHg 55%
    10:00 +30°C° 0 mm 5 mps 760 mmHg 49%
    11:00 +32°C° 0 mm 6 mps 760 mmHg 43%
    12:00 +33°C° 0 mm 6 mps 760 mmHg 41%
    13:00 +33°C° 0 mm 6 mps 760 mmHg 39%
    14:00 +34°C° 0 mm 6 mps 759 mmHg 38%
    15:00 +33°C° 0 mm 6 mps 759 mmHg 39%
    16:00 +32°C° 0 mm 6 mps 759 mmHg 41%
    17:00 +32°C° 0 mm 6 mps 759 mmHg 43%
    18:00 +29°C° 0 mm 5 mps 759 mmHg 51%
    19:00 +27°C° 0 mm 4 mps 759 mmHg 59%
    20:00 +25°C° 0 mm 3 mps 759 mmHg 67%
    21:00 +24°C° 0 mm 3 mps 760 mmHg 70%
    22:00 +22°C° 0 mm 3 mps 760 mmHg 73%
    23:00 +22°C° 0 mm 3 mps 760 mmHg 76%
    Show more